DW4118 Weather Reports


time (UTC)temp
C
wind
direction
speed
KPH
gust
KPH
rain 1hr
cm
rain 24hr
cm
rain mn
cm
humidity
%
barometer
mb
20260506061532 13 303 0.0 0.0 0.00 0.03 0.03 88 1014.5
20260506044521 13 303 0.0 0.0 0.00 0.03 0.03 88 1013.9
20260506043018 13 303 0.0 0.0 0.00 0.03 0.03 87 1013.8
20260506041515 13 303 0.0 0.0 0.00 0.03 0.03 87 1013.7
20260506040016 13 303 0.0 0.0 0.00 0.03 0.03 86 1013.6
20260506034514 13 303 0.0 0.0 0.00 0.03 0.03 87 1013.3
20260506033013 13 303 0.0 0.0 0.00 0.03 0.03 87 1013.1
20260506031516 13 303 0.0 0.0 0.00 0.03 0.03 86 1013.0
20260506030011 13 303 0.0 0.0 0.00 0.03 0.03 85 1012.9
20260506024512 13 303 0.0 0.0 0.00 0.03 0.03 85 1012.8
20260506023011 14 303 0.0 0.0 0.00 0.03 0.03 84 1012.8
20260506021511 14 303 0.0 0.0 0.00 0.03 0.03 82 1012.7
20260506020010 15 303 0.0 0.0 0.00 0.03 0.03 80 1012.8
20260506014511 15 303 0.0 0.0 0.00 0.03 0.03 80 1012.6
20260506013012 15 303 0.0 0.0 0.00 0.03 0.03 79 1012.6
20260506011509 15 303 0.0 0.0 0.00 0.03 0.03 79 1012.5
20260506010010 15 297 0.0 3.2 0.00 0.03 0.03 78 1012.5
20260506004508 15 310 0.0 3.2 0.00 0.03 0.03 77 1012.6
20260506003008 15 271 0.0 3.2 0.00 0.03 0.03 77 1012.6
20260506001507 15 3 0.0 0.0 0.00 0.03 0.03 78 1012.6
20260506000005 15 304 0.0 4.8 0.00 0.03 0.03 77 1012.7
20260505234506 16 335 0.0 3.2 0.00 0.03 0.03 75 1012.8
20260505233009 16 267 0.0 4.8 0.00 0.03 0.03 74 1012.8
20260505231509 16 321 0.0 4.8 0.00 0.03 0.03 72 1012.7
20260505230005 16 311 1.6 6.4 0.00 0.03 0.03 72 1012.7
20260505224503 16 300 0.0 3.2 0.00 0.03 0.03 72 1012.8
20260505223006 16 102 0.0 1.6 0.00 0.03 0.03 73 1012.9
20260505221503 16 281 1.6 4.8 0.00 0.03 0.03 72 1013.0
20260505220007 16 50 0.0 3.2 0.00 0.03 0.03 72 1012.9
20260505214501 17 147 0.0 6.4 0.00 0.03 0.03 69 1013.1
20260505213101 17 100 0.0 9.7 0.00 0.03 0.03 70 1013.1
20260505211614 18 190 1.6 11.3 0.00 0.03 0.03 69 1013.0
20260505210201 18 73 0.0 4.8 0.00 0.03 0.03 69 1013.2
20260505203012 16 248 0.0 4.8 0.00 0.03 0.03 75 1013.4
20260505174636 12 289 0.0 1.6 0.00 0.03 0.03 91 1013.5
20260505124547 10 57 0.0 0.0 0.00 0.00 0.00 93 1011.9
20260505123040 10 57 0.0 0.0 0.00 0.00 0.00 93 1011.8
20260505121542 10 57 0.0 0.0 0.00 0.00 0.00 93 1011.8
20260505120047 11 82 0.0 0.0 0.00 0.00 0.00 92 1011.8
20260505114536 11 82 0.0 1.6 0.00 0.00 0.00 91 1011.8
20260505113035 11 295 0.0 0.0 0.00 0.00 0.00 91 1011.7
20260505111533 11 295 0.0 0.0 0.00 0.00 0.00 90 1011.6
20260505101527 11 295 0.0 1.6 0.00 0.00 0.00 88 1011.2
20260505100023 11 249 0.0 1.6 0.00 0.00 0.00 88 1011.1
20260505094527 12 297 0.0 1.6 0.00 0.00 0.00 88 1011.1
20260505093018 12 297 0.0 0.0 0.00 0.00 0.00 88 1011.0
20260505091518 12 288 0.0 1.6 0.00 0.00 0.00 87 1010.9
20260505090017 12 330 0.0 1.6 0.00 0.00 0.00 86 1010.8
20260505084517 12 330 0.0 0.0 0.00 0.00 0.00 86 1010.6
20260505083010 13 330 0.0 1.6 0.00 0.00 0.00 86 1010.6
20260505081508 13 292 0.0 1.6 0.00 0.00 0.00 85 1010.5
20260505080005 13 300 0.0 4.8 0.00 0.00 0.00 83 1010.3
20260505074502 14 243 0.0 0.0 0.00 0.00 0.00 82 1010.3
20260505073104 14 243 0.0 1.6 0.00 0.00 0.00 81 1010.2
20260505071556 14 34 0.0 1.6 0.00 0.00 0.00 81 1009.9